Regional Weather Roundup
Issued by NWS Little Rock, AR

Home | Current Version | Previous Version | Graphics & Text | Print | Product List | Glossary On
Versions: 1 2 3 4 5 6 7 8 9 10 11 12 13 14 15 16 17 18 19 20 21 22 23 24 25 26 27 28 29 30 31 32 33 34 35 36 37 38 39 40 41 42 43 44 45 46 47 48 49 50
000
ASUS44 KLZK 031805
RWRLZK

WEATHER ROUNDUP FOR ARKANSAS
NATIONAL WEATHER SERVICE LITTLE ROCK AR
1200 PM CST TUE MAR 03 2015

NOTE: "FAIR" INDICATES FEW OR NO CLOUDS BELOW 12,000 FEET WITH NO
SIGNIFICANT WEATHER AND/OR OBSTRUCTIONS TO VISIBILITY.

ARZ001-003-010-029-031900-
NORTHWEST ARKANSAS

CITY           SKY/WX    TMP DP  RH WIND       PRES   REMARKS
FAYETTEVILLE   CLOUDY    47  47 100 SW16G23   29.92F FOG
6HR MIN TEMP:  42; 6HR MAX TEMP:  47; 6HR PCP:  0.01;

FORT SMITH     FOG       39  38  96 E3        29.99F VSB 3/4
6HR MIN TEMP:  36; 6HR MAX TEMP:  39; 6HR PCP: TRACE;

HARRISON       CLOUDY    55  51  86 SW16G31   29.90S
6HR MIN TEMP:  38; 6HR MAX TEMP:  56; 6HR PCP: TRACE;

BENTONVILLE    CLOUDY    46  43  87 SW15G22   29.91F
6HR MIN TEMP:  41; 6HR MAX TEMP:  46;

ROGERS         CLOUDY    48  46  93 SW15      29.90F
6HR MIN TEMP:  40; 6HR MAX TEMP:  48; 6HR PCP: TRACE;

SILOAM SPGS    CLOUDY    45  41  87 SW13G22   29.92F
6HR MIN TEMP:  39; 6HR MAX TEMP:  45;

HIGHFILL       CLOUDY    46  45  96 SW14G24   29.90F FOG
6HR MIN TEMP:  41; 6HR MAX TEMP:  46; 6HR PCP: TRACE;

$$

ARZ004-005-016-031900-
NORTH CENTRAL ARKANSAS

CITY           SKY/WX    TMP DP  RH WIND       PRES   REMARKS
BATESVILLE     CLOUDY    45  41  87 S5        29.99S
6HR MIN TEMP:  34; 6HR MAX TEMP:  45;

FLIPPIN        CLOUDY    55  46  71 SW7       29.90F
6HR MIN TEMP:  37; 6HR MAX TEMP:  55;

MTN HOME       CLOUDY    53  47  79 SW5       29.90F
6HR MIN TEMP:  34; 6HR MAX TEMP:  53;

$$

ARZ040-041-031900-
WEST CENTRAL ARKANSAS

CITY           SKY/WX    TMP DP  RH WIND       PRES   REMARKS
MENA           CLOUDY    52  52 100 W7        29.98F
MOUNT IDA      CLOUDY    54  50  86 VRB3      29.96F
6HR MIN TEMP:  36; 6HR MAX TEMP:  54; 6HR PCP: TRACE;

$$

ARZ009-017-025-026-028-031900-
NORTHEAST ARKANSAS

CITY           SKY/WX    TMP DP  RH WIND       PRES   REMARKS
CORNING        FAIR      41  41 100 S14       29.97F FOG
JONESBORO      CLOUDY    42  42 100 SW12      30.00F FOG
6HR MIN TEMP:  33; 6HR MAX TEMP:  42;

NEWPORT        CLOUDY    43  41  93 S13       30.01F
6HR MIN TEMP:  33; 6HR MAX TEMP:  43; 6HR PCP: TRACE;

WALNUT RIDGE   CLOUDY    41  37  87 S15       29.98F
6HR MIN TEMP:  34; 6HR MAX TEMP:  41;

BLYTHEVILLE    CLOUDY    49  49 100 SW15      29.99F FOG
6HR MIN TEMP:  36; 6HR MAX TEMP:  49;

NW BLYTHEVILLE FOG       46  46 100 SW15G21   29.99  VSB 1/4
$$

ARZ022-023-033-042-044-031900-
CENTRAL ARKANSAS

CITY           SKY/WX    TMP DP  RH WIND       PRES   REMARKS
LITTLE ROCK    LGT RAIN  44  40  85 SW5       30.04F FOG
6HR MIN TEMP:  36; 6HR MAX TEMP:  44; 6HR PCP: TRACE;

N LITTLE ROCK  CLOUDY    44  44  99 SW10      30.04F
6HR MIN TEMP:  35; 6HR MAX TEMP:  45;

JACKSONVILLE   CLOUDY    44  42  91 S8        30.02F
6HR MIN TEMP:  35; 6HR MAX TEMP:  44;

SEARCY         CLOUDY    44  41  89 S9        30.04F
6HR MIN TEMP:  34; 6HR MAX TEMP:  44; 6HR PCP: TRACE;

HOT SPRINGS    CLOUDY    42  41  96 CALM      30.02F FOG
6HR MIN TEMP:  35; 6HR MAX TEMP:  42; 6HR PCP: TRACE;

RUSSELLVILLE   CLOUDY   N/A N/A N/A SE3       29.98F
6HR MIN TEMP:  39; 6HR MAX TEMP:  60;

CLINTON        CLOUDY    41  41 100 CALM      30.00F FOG
$$

ARZ036-031900-
EAST ARKANSAS

CITY           SKY/WX    TMP DP  RH WIND       PRES   REMARKS
WEST MEMPHIS   CLOUDY    49  49 100 SW7       30.02F FOG
6HR MIN TEMP:  40; 6HR MAX TEMP:  50; 6HR PCP: TRACE;

$$

ARZ050-053-066-070-073-031900-
SOUTHWEST ARKANSAS

CITY           SKY/WX    TMP DP  RH WIND       PRES   REMARKS
ARKADELPHIA    FOG       41  41 100 VRB3      30.05F VSB 1/2
6HR MIN TEMP:  36; 6HR MAX TEMP:  40; 6HR PCP: TRACE;

CAMDEN         FOG       46  43  87 CALM      30.05F VSB 1/2
TEXARKANA      CLOUDY    50  50 100 VRB3      29.99F FOG
6HR MIN TEMP:  38; 6HR MAX TEMP:  50;

EL DORADO      CLOUDY    50  50 100 SE3       30.04S FOG
6HR MIN TEMP:  39; 6HR MAX TEMP:  50;

DE QUEEN       CLOUDY    44  43  96 E3        30.00S FOG
$$

ARZ056-057-069-031900-
SOUTHEAST ARKANSAS

CITY           SKY/WX    TMP DP  RH WIND       PRES   REMARKS
PINE BLUFF     LGT RAIN  44  44 100 SW6       30.06S VSB 1/2
6HR MIN TEMP:  36; 6HR MAX TEMP:  44; 6HR PCP: TRACE;

STUTTGART      CLOUDY    45  41  87 SW8       30.06F VSB 3/4
6HR MIN TEMP:  36; 6HR MAX TEMP:  45; 6HR PCP:  0.01;

MONTICELLO     FOG       51  50  96 CALM      30.05F VSB 1/4
6HR MIN TEMP:  39; 6HR MAX TEMP:  51; 6HR PCP:  0.06;


$$





USA.gov is the U.S. government's official web portal to all federal, state and local government web resources and services.